Peoria, IL

2:38 PM CST on November 15, 2019 (GMT -0600)
Greater Peoria Regional

Weather History for KPIA - September, 2019

Change the Weather History Date:

Friday, September 27, 2019

  Actual Average Record
Temperature  
Mean Temperature 70 °F 61 °F  
Max Temperature 80 °F 72 °F 90 °F (1891)
Min Temperature 59 °F 50 °F 32 °F (1942)
Degree Days  
Heating Degree Days 0 6  
Month to date heating degree days 1 66  
Since 1 July heating degree days 1 72  
Cooling Degree Days 4 2  
Month to date cooling degree days 203 112  
Year to date cooling degree days 1185 1019  
Growing Degree Days 20 (Base 50)    
Moisture  
Dew Point 61 °F    
Average Humidity 82    
Maximum Humidity 96    
Minimum Humidity 50    
Precipitation  
Precipitation 3.14 in 0.10 in 1.99 in (1936)
Month to date precipitation 6.87 2.87  
Year to date precipitation 40.39 27.82  
Snow  
Snow 0.00 in 0.00 in 0.00 in ()
Month to date snowfall 0.0 0.0  
Since 1 July snowfall 0.0 0.0  
Since 1 September snowfall 0.0 0.0  
Snow Depth 0.00 in    
Sea Level Pressure  
Sea Level Pressure 29.76 in    
Wind  
Wind Speed 9 mph ()    
Max Wind Speed 25 mph    
Max Gust Speed 43 mph    
Visibility 5.9 miles    
Events Fog , Rain , Thunderstorm    
T = Trace of Precipitation, MM = Missing Value Source: Averaged Metar Reports

Daily Weather History Graph

Daily Weather History Graph

Search for Another Location

Airport or City:

Astronomy

Sep. 27, 2019 Rise Set
Actual Time 6:51 AM CDT 6:47 PM CDT
Civil Twilight 6:23 AM CDT 7:15 PM CDT
Nautical Twilight 5:51 AM CDT 7:46 PM CDT
Astronomical Twilight 5:19 AM CDT 8:18 PM CDT
Moon 5:11 AM CDT (9/27) 6:39 PM CDT (9/27)
Length of Visible Light 12h 51m
Length of Day
11h 56m
Waning Crescent, 2% of the Moon is Illuminated
Sep 27
Waning Crescent
Sep 28
New
Oct 5
First Quarter
Oct 13
Full
Oct 21
Last Quarter

Hourly Weather History & Observations

Time (CDT) Temp. Heat Index Dew Point Humidity Pressure Visibility Wind Dir Wind Speed Gust Speed Precip Events Conditions
12:54 AM 59.0 °F - 45.0 °F 60% 29.89 in 10.0 mi South 8.1 mph - N/A   Partly Cloudy
1:54 AM 60.1 °F - 46.0 °F 60% 29.87 in 10.0 mi South 5.8 mph - N/A   Overcast
2:54 AM 61.0 °F - 45.0 °F 56% 29.85 in 10.0 mi South 5.8 mph - N/A   Overcast
3:54 AM 62.1 °F - 44.1 °F 52% 29.83 in 10.0 mi South 9.2 mph - N/A   Overcast
4:54 AM 63.0 °F - 44.1 °F 50% 29.83 in 10.0 mi South 12.7 mph - N/A   Overcast
5:54 AM 62.1 °F - 46.0 °F 56% 29.81 in 10.0 mi South 15.0 mph 24.2 mph N/A   Overcast
6:54 AM 62.1 °F - 46.9 °F 58% 29.80 in 10.0 mi South 15.0 mph - N/A   Overcast
7:54 AM 63.0 °F - 48.0 °F 58% 29.77 in 10.0 mi South 16.1 mph 27.6 mph N/A   Partly Cloudy
8:54 AM 64.9 °F - 51.1 °F 61% 29.76 in 10.0 mi South 16.1 mph - N/A   Partly Cloudy
9:13 AM 66.0 °F - 52.0 °F 60% 29.75 in 10.0 mi South 15.0 mph 25.3 mph N/A Thunderstorm Scattered Clouds
9:28 AM 66.0 °F - 54.0 °F 65% 29.75 in 10.0 mi South 12.7 mph - N/A   Mostly Cloudy
9:45 AM 68.0 °F - 57.0 °F 68% 29.73 in 10.0 mi South 12.7 mph 24.2 mph N/A Thunderstorm Overcast
9:54 AM 68.0 °F - 57.0 °F 68% 29.75 in 10.0 mi SW 11.5 mph 24.2 mph N/A Thunderstorm Overcast
10:12 AM 68.0 °F - 57.9 °F 70% 29.81 in 10.0 mi WNW 13.8 mph - N/A Thunderstorm Thunderstorm
10:48 AM 62.6 °F - 57.2 °F 82% 29.79 in 2.5 mi Variable 4.6 mph - 0.08 in Rain , Thunderstorm Heavy Thunderstorms and Rain
10:50 AM 62.6 °F - 57.2 °F 82% 29.76 in 1.8 mi ESE 9.2 mph - 0.09 in Rain , Thunderstorm Heavy Thunderstorms and Rain
10:54 AM 61.0 °F - 57.9 °F 90% 29.76 in 1.5 mi SE 10.4 mph - 0.19 in Rain , Thunderstorm Heavy Thunderstorms and Rain
11:04 AM 63.0 °F - 60.1 °F 90% 29.75 in 2.0 mi SSE 19.6 mph 25.3 mph 0.08 in Rain , Thunderstorm Heavy Thunderstorms and Rain
11:35 AM 64.9 °F - 63.0 °F 93% 29.75 in 2.5 mi South 6.9 mph - 0.28 in Rain , Thunderstorm Thunderstorms and Rain
11:41 AM 64.9 °F - 63.0 °F 93% 29.73 in 1.2 mi SE 8.1 mph - 0.31 in Rain , Thunderstorm Heavy Thunderstorms and Rain
11:49 AM 64.4 °F - 62.6 °F 94% 29.72 in 2.0 mi SSE 9.2 mph - 0.48 in Rain , Thunderstorm Light Thunderstorms and Rain
11:54 AM 64.9 °F - 63.0 °F 93% 29.72 in 8.0 mi SSE 9.2 mph - 0.49 in Rain , Thunderstorm Light Thunderstorms and Rain
12:03 PM 66.0 °F - 64.0 °F 93% 29.73 in 10.0 mi Variable 5.8 mph - 0.00 in Thunderstorm Overcast
12:18 PM 66.0 °F - 64.0 °F 93% 29.75 in 6.0 mi North 4.6 mph - 0.00 in Thunderstorm Overcast
12:51 PM 66.2 °F - 64.4 °F 94% 29.76 in 1.8 mi East 9.2 mph - 0.02 in Rain , Thunderstorm Heavy Thunderstorms and Rain
12:54 PM 66.9 °F - 64.0 °F 90% 29.74 in 1.0 mi East 8.1 mph - 0.06 in Rain , Thunderstorm Heavy Thunderstorms and Rain
12:58 PM 66.9 °F - 64.9 °F 93% 29.76 in 0.8 mi Variable 6.9 mph - 0.31 in Rain , Thunderstorm Heavy Thunderstorms and Rain
1:02 PM 66.0 °F - 64.9 °F 96% 29.75 in 1.0 mi North 9.2 mph - 0.41 in Rain , Thunderstorm Heavy Thunderstorms and Rain
1:08 PM 66.9 °F - 64.9 °F 93% 29.75 in 2.0 mi NE 11.5 mph - 0.45 in Rain , Thunderstorm Light Thunderstorms and Rain
1:11 PM 66.9 °F - 64.9 °F 93% 29.75 in 3.0 mi NE 9.2 mph - 0.45 in Rain , Thunderstorm Light Thunderstorms and Rain
1:54 PM 68.0 °F - 64.9 °F 90% 29.75 in 9.0 mi North 6.9 mph - 0.48 in Rain , Thunderstorm Light Thunderstorms and Rain
2:18 PM 71.1 °F - 66.0 °F 84% 29.70 in 10.0 mi ESE 11.5 mph - 0.02 in Rain , Thunderstorm Light Thunderstorms and Rain
2:35 PM 72.0 °F - 66.9 °F 84% 29.68 in 9.0 mi ESE 13.8 mph 23.0 mph 0.02 in Rain , Thunderstorm Light Rain
2:43 PM 73.0 °F - 66.9 °F 81% 29.69 in 10.0 mi ESE 10.4 mph - 0.02 in Thunderstorm Scattered Clouds
2:54 PM 73.0 °F - 66.9 °F 81% 29.69 in 10.0 mi ENE 12.7 mph 20.7 mph 0.02 in Thunderstorm Mostly Cloudy
3:02 PM 73.0 °F - 66.9 °F 81% 29.72 in 10.0 mi ENE 9.2 mph 18.4 mph N/A Thunderstorm Thunderstorm
3:22 PM 73.0 °F - 66.9 °F 81% 29.70 in 10.0 mi East 10.4 mph - N/A Thunderstorm Mostly Cloudy
3:54 PM 73.0 °F - 66.9 °F 81% 29.69 in 10.0 mi East 5.8 mph - 0.01 in Thunderstorm Mostly Cloudy
4:19 PM 75.0 °F - 68.0 °F 79% 29.69 in 10.0 mi East 8.1 mph - N/A   Mostly Cloudy
4:54 PM 75.0 °F - 68.0 °F 79% 29.67 in 10.0 mi East 8.1 mph - N/A   Scattered Clouds
5:54 PM 73.9 °F - 68.0 °F 82% 29.64 in 10.0 mi East 8.1 mph - N/A   Clear
6:54 PM 73.9 °F - 69.1 °F 85% 29.62 in 9.0 mi South 3.5 mph - N/A   Partly Cloudy
7:26 PM 79.0 °F - 69.1 °F 72% 29.63 in 10.0 mi SSW 15.0 mph 24.2 mph 0.00 in Thunderstorm Scattered Clouds
7:54 PM 80.1 °F 82.7 °F 68.0 °F 67% 29.65 in 10.0 mi SW 11.5 mph - 0.00 in Thunderstorm Mostly Cloudy
8:23 PM 75.0 °F - 66.9 °F 76% 29.70 in 10.0 mi North 11.5 mph 25.3 mph N/A   Overcast
8:29 PM 72.0 °F - 62.1 °F 71% 29.68 in 10.0 mi North 18.4 mph 29.9 mph N/A Thunderstorm Thunderstorm
8:42 PM 69.1 °F - 62.1 °F 78% 29.81 in 1.0 mi WNW 21.9 mph 42.6 mph 0.00 in Rain , Thunderstorm Thunderstorms and Rain
8:48 PM 66.2 °F - 62.6 °F 88% 29.77 in 0.2 mi NW 10.4 mph 42.6 mph 0.12 in Fog , Rain , Thunderstorm Heavy Thunderstorms and Rain
8:49 PM 66.0 °F - 62.1 °F 87% 29.76 in 0.2 mi WNW 11.5 mph 42.6 mph 0.18 in Fog , Rain , Thunderstorm Heavy Thunderstorms and Rain
8:56 PM 66.0 °F - 63.0 °F 90% 29.76 in 1.0 mi Variable 4.6 mph 19.6 mph 0.24 in Rain , Thunderstorm Thunderstorms and Rain
9:00 PM 66.0 °F - 63.0 °F 90% 29.76 in 2.0 mi WNW 5.8 mph - 0.26 in Rain , Thunderstorm Thunderstorms and Rain
9:08 PM 66.0 °F - 63.0 °F 90% 29.76 in 7.0 mi NW 4.6 mph - 0.27 in Rain , Thunderstorm Light Thunderstorms and Rain
9:22 PM 66.0 °F - 63.0 °F 90% 29.78 in 1.5 mi Variable 4.6 mph - 0.28 in Rain , Thunderstorm Heavy Thunderstorms and Rain
9:28 PM 64.9 °F - 62.1 °F 90% 29.78 in 0.8 mi North 5.8 mph - 0.40 in Rain , Thunderstorm Heavy Thunderstorms and Rain
9:31 PM 64.9 °F - 62.1 °F 90% 29.76 in 3.0 mi Variable 4.6 mph - 0.47 in Rain , Thunderstorm Heavy Thunderstorms and Rain
9:50 PM 64.4 °F - 62.6 °F 94% 29.76 in 5.0 mi SE 3.5 mph - 0.52 in Rain , Thunderstorm Light Rain
9:54 PM 64.9 °F - 63.0 °F 93% 29.76 in 3.0 mi South 5.8 mph - 0.53 in Rain , Thunderstorm Heavy Rain
10:06 PM 66.0 °F - 63.0 °F 90% 29.77 in 5.0 mi South 5.8 mph - 0.07 in Rain , Thunderstorm Light Thunderstorms and Rain
10:17 PM 66.0 °F - 63.0 °F 90% 29.80 in 1.5 mi West 8.1 mph - 0.10 in Rain , Thunderstorm Thunderstorms and Rain
10:19 PM 66.0 °F - 63.0 °F 90% 29.78 in 0.8 mi Variable 3.5 mph - 0.11 in Rain , Thunderstorm Heavy Thunderstorms and Rain
10:31 PM 66.0 °F - 64.0 °F 93% 29.76 in 10.0 mi Calm Calm - 0.32 in Rain , Thunderstorm Light Thunderstorms and Rain
10:54 PM 66.9 °F - 64.9 °F 93% 29.80 in 10.0 mi NW 13.8 mph 26.5 mph 0.33 in Rain , Thunderstorm Thunderstorms and Rain
11:01 PM 68.0 °F - 64.9 °F 90% 29.82 in 0.5 mi West 9.2 mph 26.5 mph 0.27 in Fog , Rain , Thunderstorm Heavy Thunderstorms and Rain
11:10 PM 68.0 °F - 66.0 °F 93% 29.83 in 0.8 mi SW 11.5 mph - 0.36 in Rain , Thunderstorm Heavy Thunderstorms and Rain
11:18 PM 68.0 °F - 66.0 °F 93% 29.82 in 1.0 mi Variable 3.5 mph - 0.53 in Rain , Thunderstorm Heavy Thunderstorms and Rain
11:24 PM 66.9 °F - 64.9 °F 93% 29.83 in 2.0 mi WSW 4.6 mph - 0.56 in Rain , Thunderstorm Thunderstorms and Rain
11:31 PM 66.9 °F - 64.9 °F 93% 29.83 in 3.0 mi WSW 8.1 mph - 0.58 in Rain , Thunderstorm Rain
11:39 PM 66.9 °F - 64.0 °F 90% 29.85 in 3.0 mi SW 12.7 mph - 0.60 in Rain , Thunderstorm Thunderstorms and Rain
11:54 PM 66.0 °F - 64.0 °F 93% 29.85 in 3.0 mi SSW 15.0 mph - 0.66 in Rain , Thunderstorm Thunderstorms and Rain